Карточка аэропорта UUYY

Внимание!
Информация на этой странице в стадии наполнения.
Если вы не увидели какой-то информации, или заметили неточность - пожалуйста сообщите нам!
Спасибо!
Команда RU-STAFF
Название аэропортаСыктывкар
Название аэропорта (англ.)Syktyvkar
Превышение339 ft. (103.3 m.)
Координаты61°38.502', 50°50.298'
Высота перехода3000 feet
Эшелон переходаQNH>=1013hPa:FL040; QNH<1013hPa:FL050; QNH<977hPa:FL060
Коды ответчика3130-3134, 5752-5757, 5770-5777, 6701-6717
Зона ОрВДСанкт-Петербург РПИ (ULLL)
Данные METARUUYY 050800Z 19001MPS CAVOK M16/M17 Q1042 R18/450242 NOSIG RMK QFE773/1030
Проноз погоды (TAF)UUYY 050800Z 0509/0609 20003G08MPS 6000 -SN FEW007 BKN016 TEMPO 0511/0519 0300 FZFG VV003 BECMG 0519/0520 19003G11MPS FEW005 BKN011
NOTAMshow/hide NOTAM
AWOS   TABLE

Информация о ВПП

ВПП Длина ВПП (м.) Покрытие Курс ВПП Частота ILS
012500Асфальтобетон6108.3
192500Асфальтобетон186111.7

Диспетчерские позиции

Позывной Наименование органа УВД Частота
UUYY_R_APPСивкар-Круг124.600
UUYY_TWRСивкар-Старт124.600



Спутниковое изображение